Find OneWeb SL0156

NORAD ID: 48052 Int'l Des: 2021-025 Owner: ONEWEBN Country: UK Constellation: oneweb operational
LEOCIRCULARPOLARONEWEB_TYPE

リアルタイム位置

3D地球を読み込み中...

OneWeb SL0156について

説明を読み込み中...

次回通過

Passes for default location (London). Set your location on the main map for personalized predictions.

高度履歴

Loading altitude history...

軌道要素

1 48052U 21025L 26126.52519367 -.00000086 00000-0 -27105-3 0 9998
2 48052 87.8956 328.5163 0001674 90.5257 269.6064 13.13471268248102
Epoch: May 6, 2026 • Age: 5 hours

現在のステータス

高度 1229.4 km
速度 7.24 km/s
衛星直下点 -48.20°S, 24.96°E
打ち上げ日 Mar 25, 2021
運用期間 5.1 years
タイプ internet

技術仕様

分類 Payload
質量 148.00 kg
乾燥質量 140.00 kg
総質量 148.00 kg
長さ 1.30 m
直径 1.00 m
スパン 5.00 m
形状 Trapezoid+2 pan
製造者 ONEWUS
バスタイプ ARROW
フェーズステータス In Orbit
所有者/国 ONEWEBN/UK

Most Searched